Flag for Angola Weather past 2 weeks in Huambo, Angola

Now
84 °F

Broken clouds.


Feels Like: 94 °F
Forecast: 53 / 74 °F
Wind: 9 mph from Southwest

Location: Luanda Airport


UV Index: 7 (High)

Visibility: N/A


Pressure: 29.74 "Hg

Humidity: 79%

Dew point: 77 °F

Location of HuamboLocation

Historic Weather in Huambo

°F

Huambo temperature yesterday

Maximum temperature yesterday: 86 °F (at 11:00 AM)
Minimum temperature yesterday: 75 °F (at 4:00 AM)
Average temperature yesterday: 81 °F

Past Weeks' High & Low Weather Summary

 TemperatureHumidityPressure
High91 °F (Apr 13, 12:00 PM)100% (Apr 10, 9:00 AM)30.12 "Hg (Apr 10, 9:00 AM)
Low70 °F (Apr 10, 9:00 AM)55% (Apr 13, 11:00 AM)29.71 "Hg (Apr 17, 4:00 PM)
Average81 °F84%29.85 "Hg
* Reported Apr 9 5:00 PM — Apr 24 4:00 PM, Huambo, Weather by CustomWeather, © 2014

Note: Actual official high and low records may vary slightly from our data, if they occured in-between our weather recording intervals... More about our weather records

Advertising

Historic Weather Conditions — Data for Previous 24 hours

 ConditionsComfort  
Time TempWeatherWind HumidityBarometerVisibility
4:00 PM
Apr 24
84 °FBroken clouds.9 mph79%29.77 "HgN/A
3:00 PM82 °FBroken clouds.8 mph89%29.77 "HgN/A
2:00 PM82 °FBroken clouds.9 mph89%29.80 "HgN/A
1:00 PM84 °FBroken clouds.9 mph79%29.83 "HgN/A
12:00 PM86 °FBroken clouds.7 mph75%29.83 "HgN/A
11:00 AM86 °FBroken clouds.2 mph75%29.86 "HgN/A
10:00 AM84 °FBroken clouds.5 mph84%29.89 "HgN/A
9:00 AM84 °FBroken clouds.7 mph79%29.86 "HgN/A
8:00 AM82 °FBroken clouds.7 mph84%29.86 "HgN/A
7:00 AM79 °FPartly sunny.5 mph94%29.83 "HgN/A
6:00 AM79 °FPassing clouds.5 mph94%29.83 "HgN/A
5:00 AM79 °FPassing clouds.5 mph94%29.80 "HgN/A
4:00 AM81 °FPassing clouds.6 mph89%29.80 "HgN/A
3:00 AM81 °FPassing clouds.5 mph89%29.83 "HgN/A
2:00 AM81 °FPassing clouds.6 mph89%29.83 "HgN/A
1:00 AM81 °FPassing clouds.5 mph89%29.86 "HgN/A
11:00 PM
Apr 23
81 °FPassing clouds.5 mph89%29.86 "HgN/A
10:00 PM81 °FPassing clouds.7 mph89%29.86 "HgN/A
8:00 PM82 °FPassing clouds.8 mph84%29.83 "HgN/A
6:00 PM82 °FPassing clouds.9 mph84%29.80 "HgN/A
5:00 PM84 °FPartly sunny.9 mph79%29.77 "HgN/A
Weather by CustomWeather, © 2014

See weather overview